Weather History for Cleveland Burke, OH

Change the Weather History Date:

Saturday, November 24, 2012

  Actual Average Record
Temperature  
Mean Temperature 34 °F -  
Max Temperature 36 °F 45 °F 66 °F (1999)
Min Temperature 30 °F 35 °F 17 °F (2005)
Degree Days  
Heating Degree Days 31    
Moisture  
Dew Point 24 °F    
Average Humidity 65    
Maximum Humidity 79    
Minimum Humidity 59    
Precipitation  
Precipitation 0.00 in - - ()
Sea Level Pressure  
Sea Level Pressure 30.05 in    
Wind  
Wind Speed 22 mph (WNW)    
Max Wind Speed 28 mph    
Max Gust Speed 33 mph    
Visibility 10 miles    
Events Snow    
Averages and records for this station are not official NWS values.
T = Trace of Precipitation, MM = Missing Value Source: NWS Daily Summary

Daily Weather History Graph

Daily Weather History Graph

Search for Another Location

Airport:

Trip Planner

Search our weather history database for the weather conditions in past years. The results will help you decide how hot, cold, wet, or windy it might be!

Date:

Astronomy

Nov. 24, 2012 Rise Set
Actual Time 7:26 AM EST 5:00 PM EST
Civil Twilight 6:56 AM EST 5:30 PM EST
Nautical Twilight 6:22 AM EST 6:04 PM EST
Astronomical Twilight 5:48 AM EST 6:37 PM EST
Moon 2:46 PM EST (11/24) 3:40 AM EST (11/24)
Length of Visible Light 10h 34m
Length of Day
9h 33m
Waxing Gibbous, 87% of the Moon is Illuminated
Nov 24
Waxing Gibbous
Nov 28
Full
Dec 6
Last Quarter
Dec 13
New
Dec 20
First Quarter

Hourly Weather History & Observations

Time (EST) Temp. Windchill Dew Point Humidity Pressure Visibility Wind Dir Wind Speed Gust Speed Precip Events Conditions
12:04 AM 33.8 °F 21.6 °F 26.6 °F 75% 29.98 in 10.0 mi West 23.0 mph 28.8 mph 0.00 in Snow Light Snow
12:53 AM 34.0 °F 23.4 °F 28.0 °F 79% 29.99 in 10.0 mi WSW 17.3 mph 31.1 mph 0.00 in Snow Light Snow
1:26 AM 35.6 °F 23.0 °F 26.6 °F 70% 29.97 in 10.0 mi WNW 27.6 mph 33.4 mph 0.00 in   Overcast
1:53 AM 36.0 °F 24.7 °F 25.0 °F 64% 29.99 in 10.0 mi WNW 21.9 mph 29.9 mph 0.00 in   Overcast
2:53 AM 36.0 °F 24.2 °F 24.1 °F 62% 29.99 in 10.0 mi WNW 24.2 mph 32.2 mph N/A   Overcast
3:53 AM 36.0 °F 24.2 °F 25.0 °F 64% 29.99 in 10.0 mi WNW 24.2 mph 31.1 mph N/A   Overcast
4:53 AM 35.1 °F 23.0 °F 23.0 °F 61% 30.01 in 10.0 mi WNW 24.2 mph 33.4 mph N/A   Overcast
5:53 AM 35.1 °F 23.3 °F 24.1 °F 64% 30.02 in 10.0 mi WNW 23.0 mph 31.1 mph 0.00 in   Overcast
6:53 AM 35.1 °F 23.5 °F 21.9 °F 59% 30.04 in 9.0 mi WNW 21.9 mph 31.1 mph 0.00 in   Overcast
7:53 AM 35.1 °F 23.0 °F 24.1 °F 64% 30.05 in 10.0 mi WNW 24.2 mph 31.1 mph N/A   Overcast
8:53 AM 34.0 °F 23.4 °F 23.0 °F 64% 30.06 in 10.0 mi NW 17.3 mph 28.8 mph N/A   Overcast
9:53 AM 34.0 °F 22.1 °F 23.0 °F 64% 30.07 in 8.0 mi WNW 21.9 mph 29.9 mph 0.00 in Snow Light Snow
10:53 AM 34.0 °F 21.8 °F 23.0 °F 64% 30.08 in 10.0 mi WNW 23.0 mph 28.8 mph 0.00 in   Overcast
11:53 AM 34.0 °F 22.4 °F 23.0 °F 64% 30.07 in 10.0 mi WNW 20.7 mph 29.9 mph N/A   Overcast
12:53 PM 34.0 °F 22.1 °F 23.0 °F 64% 30.06 in 10.0 mi WNW 21.9 mph 27.6 mph N/A   Overcast
1:53 PM 34.0 °F 23.0 °F 24.1 °F 67% 30.06 in 10.0 mi WNW 18.4 mph 27.6 mph 0.00 in Snow Light Snow
2:53 PM 34.0 °F 22.7 °F 23.0 °F 64% 30.06 in 10.0 mi WNW 19.6 mph 28.8 mph 0.00 in   Overcast
3:53 PM 34.0 °F 21.5 °F 23.0 °F 64% 30.08 in 10.0 mi West 24.2 mph - N/A   Overcast
4:53 PM 34.0 °F 22.1 °F 24.1 °F 67% 30.08 in 10.0 mi West 21.9 mph 28.8 mph N/A   Overcast
5:53 PM 34.0 °F 22.7 °F 24.1 °F 67% 30.09 in 10.0 mi West 19.6 mph 25.3 mph N/A   Overcast
6:53 PM 34.0 °F 23.8 °F 23.0 °F 64% 30.09 in 10.0 mi WNW 16.1 mph 23.0 mph N/A   Overcast
7:53 PM 34.0 °F 22.7 °F 24.1 °F 67% 30.09 in 10.0 mi WNW 19.6 mph 24.2 mph N/A   Overcast
8:53 PM 34.0 °F 23.8 °F 23.0 °F 64% 30.08 in 10.0 mi WNW 16.1 mph 21.9 mph N/A   Overcast
9:53 PM 33.1 °F 22.6 °F 21.9 °F 64% 30.08 in 10.0 mi WSW 16.1 mph 20.7 mph N/A   Overcast
10:53 PM 32.0 °F 21.6 °F 21.0 °F 64% 30.07 in 10.0 mi SW 15.0 mph - N/A   Overcast
11:53 PM 30.9 °F 20.2 °F 21.0 °F 67% 30.06 in 10.0 mi SW 15.0 mph - N/A   Overcast